सभी
Mount Keith Airport (Mount Keith, Western Australia) WME मौसम
|
Mount Keith, Western Australia (WME / YMNE)
स्वच्छ आकाश
हल्की हवाएं |
|
13 °C |
There is no TAF data available at WME or any nearby airports.
Recent WME METAR history
| Date | Time (AWST) | Flight Rules | Wind Dir. | Speed | Type | Height AGL (ft) | Visibility | Temp (°C) | Temp (°F) | Dew Point (°C) | Dew Point (°F) | Rel. Humid. | Pressure | Density Altitude | Remarks |
|---|---|---|---|---|---|---|---|---|---|---|---|---|---|---|---|
| 05-मई | 00:00 | VFR | 130° | 8 kt | 10000 meters | 13° | 55° | 6° | 42° | 62% | 1025 mb | 1,441 ft | |||
| 04-मई | 23:00 | VFR | 130° | 8 kt | 10000 meters | 14° | 57° | 5° | 41° | 55% | 1025 mb | 1,561 ft | |||
| 04-मई | 22:00 | VFR | 120° | 9 kt | 10000 meters | 15° | 59° | 5° | 41° | 51% | 1025 mb | 1,681 ft | |||
| 04-मई | 21:00 | VFR | 130° | 8 kt | 10000 meters | 15° | 59° | 5° | 41° | 51% | 1025 mb | 1,681 ft | |||
| 04-मई | 20:00 | VFR | 130° | 7 kt | 10000 meters | 16° | 60° | 4° | 39° | 45% | 1025 mb | 1,801 ft | |||
| 04-मई | 19:00 | VFR | 130° | 6 kt | 10000 meters | 17° | 62° | 4° | 39° | 42% | 1024 mb | 1,951 ft | |||
| 04-मई | 18:00 | VFR | 110° | 8 kt | 10000 meters | 18° | 64° | 4° | 39° | 39% | 1024 mb | 2,071 ft | |||
| 04-मई | 17:00 | VFR | 130° | 11 kt | 10000 meters | 19° | 66° | 4° | 39° | 37% | 1023 mb | 2,220 ft | |||
| 04-मई | 16:00 | VFR | 120° | 11 kt | 10000 meters | 20° | 68° | 3° | 37° | 32% | 1023 mb | 2,340 ft | |||
| 04-मई | 15:00 | VFR | 140° | 11 kt | 10000 meters | 21° | 69° | 4° | 39° | 33% | 1023 mb | 2,460 ft | |||
| 04-मई | 14:00 | VFR | 90° | 8 kt | 10000 meters | 20° | 68° | 4° | 39° | 35% | 1023 mb | 2,340 ft | |||
| 04-मई | 13:00 | VFR | 150° | 9 kt | 10000 meters | 19° | 66° | 4° | 39° | 37% | 1024 mb | 2,191 ft | |||
| 04-मई | 12:00 | VFR | 110° | 10 kt | 10000 meters | 18° | 64° | 4° | 39° | 39% | 1025 mb | 2,041 ft | |||
| 04-मई | 11:00 | VFR | 110° | 11 kt | 10000 meters | 17° | 62° | 4° | 39° | 42% | 1026 mb | 1,892 ft | |||
| 04-मई | 10:00 | VFR | 100° | 10 kt | 10000 meters | 17° | 62° | 5° | 41° | 45% | 1027 mb | 1,862 ft | |||
| 04-मई | 09:00 | VFR | 110° | 11 kt | 10000 meters | 15° | 59° | 5° | 41° | 51% | 1027 mb | 1,622 ft | |||
| 04-मई | 08:00 | VFR | 110° | 8 kt | 10000 meters | 13° | 55° | 5° | 41° | 58% | 1027 mb | 1,382 ft | |||
| 04-मई | 07:00 | VFR | 120° | 3 kt | 10000 meters | 9° | 48° | 5° | 41° | 76% | 1026 mb | 932 ft | |||
| 04-मई | 06:00 | VFR | 120° | 4 kt | 10000 meters | 8° | 46° | 4° | 39° | 76% | 1025 mb | 841 ft | |||
| 04-मई | 05:00 | VFR | 120° | 5 kt | 10000 meters | 9° | 48° | 5° | 41° | 76% | 1025 mb | 961 ft | |||
| 04-मई | 04:00 | VFR | 120° | 4 kt | 10000 meters | 9° | 48° | 4° | 39° | 71% | 1025 mb | 961 ft | |||
| 04-मई | 03:00 | VFR | 120° | 3 kt | 10000 meters | 9° | 48° | 4° | 39° | 71% | 1024 mb | 991 ft | |||
| 04-मई | 02:00 | VFR | 120° | 5 kt | 10000 meters | 11° | 51° | 5° | 41° | 66% | 1024 mb | 1,231 ft | |||
| 04-मई | 01:00 | VFR | 120° | 5 kt | 10000 meters | 11° | 51° | 4° | 39° | 62% | 1024 mb | 1,231 ft |
लॉगिन
| Your browser is unsupported. अपना ब्राऊजर अपग्रेड करें |
